| time (UTC) | temp F | wind direction | speed knots | gust knots | rain 1hr in | rain 24hr in | rain mn in | humidity % | barometer mb |
| 20260503051506 | 49 | 296 | 1.7 | 2.6 | 0.00 | 0.00 | 0.00 | 35 | 1013.1 |
| 20260503051005 | 49 | 305 | 1.7 | 2.6 | 0.00 | 0.00 | 0.00 | 35 | 1013.1 |
| 20260503050505 | 50 | 296 | 1.7 | 4.3 | 0.00 | 0.00 | 0.00 | 35 | 1013.0 |
| 20260503044505 | 50 | 287 | 2.6 | 2.6 | 0.00 | 0.00 | 0.00 | 34 | 1013.0 |
| 20260503044005 | 50 | 278 | 1.7 | 2.6 | 0.00 | 0.00 | 0.00 | 34 | 1013.0 |
| 20260503043506 | 51 | 295 | 3.5 | 4.3 | 0.00 | 0.00 | 0.00 | 34 | 1012.9 |
| 20260503042505 | 51 | 299 | 1.7 | 4.3 | 0.00 | 0.00 | 0.00 | 35 | 1012.9 |
| 20260503042005 | 52 | 280 | 2.6 | 5.2 | 0.00 | 0.00 | 0.00 | 33 | 1012.9 |
| 20260503041005 | 52 | 196 | 0.9 | 1.7 | 0.00 | 0.00 | 0.00 | 32 | 1012.8 |
| 20260503040505 | 53 | 310 | 0.0 | 0.9 | 0.00 | 0.00 | 0.00 | 31 | 1012.8 |
| 20260503040005 | 53 | 325 | 0.9 | 1.7 | 0.00 | 0.00 | 0.00 | 32 | 1012.7 |
| 20260503035505 | 53 | 15 | 0.9 | 1.7 | 0.00 | 0.00 | 0.00 | 32 | 1012.7 |
| 20260503035005 | 54 | 315 | 0.9 | 2.6 | 0.00 | 0.00 | 0.00 | 31 | 1012.7 |
| 20260503034505 | 54 | 299 | 1.7 | 2.6 | 0.00 | 0.00 | 0.00 | 30 | 1012.5 |
| 20260503034005 | 55 | 243 | 0.0 | 1.7 | 0.00 | 0.00 | 0.00 | 31 | 1012.5 |
| 20260503033505 | 56 | 215 | 0.9 | 1.7 | 0.00 | 0.00 | 0.00 | 29 | 1012.4 |
| 20260503033006 | 56 | 317 | 1.7 | 2.6 | 0.00 | 0.00 | 0.00 | 29 | 1012.4 |
| 20260503031504 | 57 | 229 | 0.9 | 1.7 | 0.00 | 0.00 | 0.00 | 29 | 1012.3 |
| 20260503031005 | 58 | 300 | 2.6 | 2.6 | 0.00 | 0.00 | 0.00 | 28 | 1012.3 |
| 20260503030505 | 59 | 322 | 2.6 | 4.3 | 0.00 | 0.00 | 0.00 | 27 | 1012.2 |
| 20260503030005 | 59 | 318 | 2.6 | 4.3 | 0.00 | 0.00 | 0.00 | 27 | 1012.2 |
| 20260503025504 | 60 | 304 | 3.5 | 5.2 | 0.00 | 0.00 | 0.00 | 26 | 1012.2 |
| 20260503025005 | 60 | 312 | 4.3 | 6.1 | 0.00 | 0.00 | 0.00 | 26 | 1012.1 |
| 20260503024505 | 61 | 324 | 2.6 | 4.3 | 0.00 | 0.00 | 0.00 | 25 | 1012.1 |
| 20260503024006 | 61 | 298 | 4.3 | 4.3 | 0.00 | 0.00 | 0.00 | 25 | 1012.0 |
| 20260503023505 | 62 | 299 | 4.3 | 4.3 | 0.00 | 0.00 | 0.00 | 24 | 1012.0 |
| 20260503023005 | 63 | 293 | 4.3 | 6.1 | 0.00 | 0.00 | 0.00 | 24 | 1012.1 |
| 20260503022505 | 64 | 280 | 5.2 | 7.8 | 0.00 | 0.00 | 0.00 | 23 | 1012.0 |
| 20260503021005 | 66 | 276 | 5.2 | 7.8 | 0.00 | 0.00 | 0.00 | 22 | 1012.0 |
| 20260503020505 | 66 | 289 | 5.2 | 7.8 | 0.00 | 0.00 | 0.00 | 23 | 1012.0 |
| 20260503020005 | 66 | 298 | 7.8 | 12.2 | 0.00 | 0.00 | 0.00 | 21 | 1012.1 |
| 20260503015504 | 66 | 226 | 1.7 | 2.6 | 0.00 | 0.00 | 0.00 | 26 | 1012.2 |
| 20260503015005 | 65 | 81 | 0.0 | 1.7 | 0.00 | 0.00 | 0.00 | 28 | 1012.2 |
| 20260503014005 | 65 | 331 | 2.6 | 6.1 | 0.00 | 0.00 | 0.00 | 27 | 1012.2 |
| 20260503013005 | 67 | 74 | 2.6 | 8.7 | 0.00 | 0.00 | 0.00 | 29 | 1012.3 |
| 20260503012505 | 67 | 125 | 1.7 | 4.3 | 0.00 | 0.00 | 0.00 | 29 | 1012.4 |
| 20260503012005 | 68 | 155 | 2.6 | 6.1 | 0.00 | 0.00 | 0.00 | 29 | 1012.5 |
| 20260503011506 | 68 | 151 | 4.3 | 7.0 | 0.00 | 0.00 | 0.00 | 29 | 1012.5 |
| 20260503011005 | 68 | 193 | 5.2 | 7.8 | 0.00 | 0.00 | 0.00 | 28 | 1012.6 |
| 20260503010505 | 68 | 219 | 6.1 | 7.8 | 0.00 | 0.00 | 0.00 | 28 | 1012.7 |
| 20260503010005 | 67 | 199 | 3.5 | 7.0 | 0.00 | 0.00 | 0.00 | 29 | 1012.7 |
| 20260503005505 | 66 | 143 | 1.7 | 4.3 | 0.00 | 0.00 | 0.00 | 28 | 1012.6 |
| 20260503005004 | 67 | 202 | 4.3 | 7.8 | 0.00 | 0.00 | 0.00 | 26 | 1012.8 |
| 20260503004505 | 66 | 206 | 8.7 | 11.3 | 0.00 | 0.00 | 0.00 | 29 | 1012.8 |
| 20260503004005 | 66 | 207 | 6.1 | 10.4 | 0.00 | 0.00 | 0.00 | 30 | 1012.9 |
| 20260503003005 | 66 | 198 | 5.2 | 7.8 | 0.00 | 0.00 | 0.00 | 27 | 1012.8 |
| 20260503002505 | 68 | 104 | 2.6 | 5.2 | 0.00 | 0.00 | 0.00 | 31 | 1012.8 |
| 20260503002005 | 69 | 127 | 2.6 | 7.8 | 0.00 | 0.00 | 0.00 | 29 | 1013.0 |
| 20260503001505 | 69 | 190 | 6.1 | 8.7 | 0.00 | 0.00 | 0.00 | 29 | 1013.0 |
| 20260503001004 | 68 | 221 | 5.2 | 7.0 | 0.00 | 0.00 | 0.00 | 26 | 1013.0 |
| 20260503000505 | 68 | 241 | 4.3 | 8.7 | 0.00 | 0.00 | 0.00 | 24 | 1013.1 |
| 20260502235505 | 68 | 235 | 9.6 | 13.0 | 0.00 | 0.00 | 0.00 | 25 | 1013.1 |
| 20260502235005 | 68 | 259 | 5.2 | 8.7 | 0.00 | 0.00 | 0.00 | 26 | 1013.1 |
| 20260502234005 | 68 | 192 | 7.0 | 10.4 | 0.00 | 0.00 | 0.00 | 27 | 1013.3 |
| 20260502233505 | 68 | 233 | 7.8 | 11.3 | 0.00 | 0.00 | 0.00 | 27 | 1013.3 |
| 20260502233005 | 67 | 280 | 5.2 | 11.3 | 0.00 | 0.00 | 0.00 | 27 | 1013.4 |
| 20260502232505 | 67 | 262 | 9.6 | 12.2 | 0.00 | 0.00 | 0.00 | 27 | 1013.5 |
| 20260502232005 | 67 | 274 | 8.7 | 12.2 | 0.00 | 0.00 | 0.00 | 28 | 1013.6 |
| 20260502231505 | 67 | 193 | 4.3 | 10.4 | 0.00 | 0.00 | 0.00 | 29 | 1013.7 |
| 20260502231006 | 68 | 268 | 3.5 | 11.3 | 0.00 | 0.00 | 0.00 | 31 | 1013.6 |
| 20260502230504 | 68 | 107 | 0.9 | 2.6 | 0.00 | 0.00 | 0.00 | 32 | 1013.9 |
| 20260502230005 | 67 | 238 | 0.9 | 4.3 | 0.00 | 0.00 | 0.00 | 30 | 1014.0 |
| 20260502225505 | 67 | 126 | 1.7 | 7.0 | 0.00 | 0.00 | 0.00 | 30 | 1014.2 |
| 20260502225005 | 68 | 221 | 4.3 | 7.8 | 0.00 | 0.00 | 0.00 | 29 | 1014.2 |
| 20260502224505 | 68 | 212 | 8.7 | 13.9 | 0.00 | 0.00 | 0.00 | 30 | 1014.2 |
| 20260502224005 | 67 | 181 | 1.7 | 6.1 | 0.00 | 0.00 | 0.00 | 30 | 1014.3 |
| 20260502223505 | 66 | 256 | 2.6 | 5.2 | 0.00 | 0.00 | 0.00 | 31 | 1014.4 |
| 20260502223005 | 65 | 235 | 1.7 | 5.2 | 0.00 | 0.00 | 0.00 | 30 | 1014.5 |
| 20260502222504 | 65 | 240 | 7.8 | 13.0 | 0.00 | 0.00 | 0.00 | 30 | 1014.7 |
| 20260502222005 | 65 | 251 | 6.1 | 8.7 | 0.00 | 0.00 | 0.00 | 31 | 1014.7 |
| 20260502221505 | 66 | 189 | 3.5 | 7.8 | 0.00 | 0.00 | 0.00 | 32 | 1014.7 |
| 20260502220505 | 66 | 260 | 4.3 | 11.3 | 0.00 | 0.00 | 0.00 | 31 | 1014.9 |
| 20260502220005 | 66 | 22 | 1.7 | 6.1 | 0.00 | 0.00 | 0.00 | 36 | 1014.9 |
| 20260502215505 | 66 | 154 | 4.3 | 7.8 | 0.00 | 0.00 | 0.00 | 35 | 1015.0 |
| 20260502215005 | 66 | 277 | 2.6 | 10.4 | 0.00 | 0.00 | 0.00 | 33 | 1015.2 |
| 20260502214505 | 66 | 200 | 8.7 | 13.0 | 0.00 | 0.00 | 0.00 | 33 | 1015.3 |
| 20260502214004 | 65 | 175 | 7.0 | 13.0 | 0.00 | 0.00 | 0.00 | 34 | 1015.3 |
| 20260502213505 | 66 | 223 | 8.7 | 13.0 | 0.00 | 0.00 | 0.00 | 34 | 1015.3 |
| 20260502213005 | 66 | 223 | 11.3 | 14.8 | 0.00 | 0.00 | 0.00 | 35 | 1015.4 |
| 20260502212506 | 64 | 212 | 4.3 | 7.8 | 0.00 | 0.00 | 0.00 | 36 | 1015.5 |
| 20260502211505 | 64 | 183 | 5.2 | 7.8 | 0.00 | 0.00 | 0.00 | 36 | 1015.7 |
| 20260502211005 | 64 | 126 | 1.7 | 4.3 | 0.00 | 0.00 | 0.00 | 37 | 1015.8 |
| 20260502210505 | 63 | 304 | 4.3 | 7.8 | 0.00 | 0.00 | 0.00 | 37 | 1015.9 |
| 20260502205005 | 63 | 148 | 4.3 | 8.7 | 0.00 | 0.00 | 0.00 | 38 | 1015.9 |
| 20260502204505 | 63 | 128 | 3.5 | 12.2 | 0.00 | 0.00 | 0.00 | 41 | 1016.1 |
| 20260502204005 | 64 | 136 | 3.5 | 10.4 | 0.00 | 0.00 | 0.00 | 35 | 1016.2 |
| 20260502203505 | 63 | 187 | 2.6 | 5.2 | 0.00 | 0.00 | 0.00 | 37 | 1016.2 |
| 20260502203005 | 63 | 144 | 2.6 | 6.1 | 0.00 | 0.00 | 0.00 | 39 | 1016.3 |
| 20260502201504 | 63 | 100 | 4.3 | 10.4 | 0.00 | 0.00 | 0.00 | 40 | 1016.6 |
| 20260502201005 | 63 | 129 | 3.5 | 8.7 | 0.00 | 0.00 | 0.00 | 40 | 1016.7 |
| 20260502200505 | 62 | 179 | 4.3 | 7.0 | 0.00 | 0.00 | 0.00 | 41 | 1016.8 |
| 20260502200005 | 61 | 105 | 1.7 | 6.1 | 0.00 | 0.00 | 0.00 | 40 | 1016.9 |
| 20260502195504 | 61 | 122 | 2.6 | 5.2 | 0.00 | 0.00 | 0.00 | 42 | 1016.9 |
| 20260502195005 | 60 | 157 | 1.7 | 6.1 | 0.00 | 0.00 | 0.00 | 41 | 1017.0 |
| 20260502194505 | 61 | 188 | 5.2 | 7.8 | 0.00 | 0.00 | 0.00 | 40 | 1017.1 |
| 20260502194005 | 60 | 205 | 2.6 | 8.7 | 0.00 | 0.00 | 0.00 | 40 | 1017.3 |
| 20260502193505 | 61 | 217 | 4.3 | 10.4 | 0.00 | 0.00 | 0.00 | 40 | 1017.3 |
| 20260502193005 | 61 | 119 | 2.6 | 7.0 | 0.00 | 0.00 | 0.00 | 41 | 1017.5 |
| 20260502192504 | 61 | 247 | 4.3 | 10.4 | 0.00 | 0.00 | 0.00 | 39 | 1017.5 |
| 20260502192005 | 61 | 190 | 2.6 | 7.0 | 0.00 | 0.00 | 0.00 | 41 | 1017.5 |
| 20260502191505 | 61 | 79 | 2.6 | 6.1 | 0.00 | 0.00 | 0.00 | 41 | 1017.6 |
| 20260502191005 | 61 | 151 | 2.6 | 6.1 | 0.00 | 0.00 | 0.00 | 41 | 1017.6 |
| 20260502190004 | 60 | 163 | 6.1 | 10.4 | 0.00 | 0.00 | 0.00 | 42 | 1017.8 |
| 20260502185505 | 59 | 104 | 1.7 | 5.2 | 0.00 | 0.00 | 0.00 | 45 | 1017.8 |
| 20260502184505 | 60 | 188 | 6.1 | 13.9 | 0.00 | 0.00 | 0.00 | 42 | 1017.9 |
| 20260502184005 | 59 | 211 | 6.1 | 13.9 | 0.00 | 0.00 | 0.00 | 42 | 1017.9 |
| 20260502183005 | 60 | 140 | 4.3 | 7.8 | 0.00 | 0.00 | 0.00 | 43 | 1018.0 |
| 20260502182005 | 59 | 152 | 4.3 | 12.2 | 0.00 | 0.00 | 0.00 | 45 | 1018.2 |
| 20260502181504 | 58 | 126 | 3.5 | 5.2 | 0.00 | 0.00 | 0.00 | 45 | 1018.2 |
| 20260502181005 | 58 | 144 | 3.5 | 7.8 | 0.00 | 0.00 | 0.00 | 44 | 1018.3 |
| 20260502180505 | 58 | 146 | 2.6 | 7.0 | 0.00 | 0.00 | 0.00 | 44 | 1018.4 |
| 20260502170505 | 54 | 197 | 3.5 | 6.1 | 0.00 | 0.00 | 0.00 | 50 | 1019.2 |
| 20260502164005 | 54 | 167 | 1.7 | 2.6 | 0.00 | 0.00 | 0.00 | 53 | 1019.2 |
| 20260502163505 | 54 | 128 | 3.5 | 5.2 | 0.00 | 0.00 | 0.00 | 52 | 1019.3 |
| 20260502163005 | 54 | 155 | 1.7 | 2.6 | 0.00 | 0.00 | 0.00 | 54 | 1019.4 |
| 20260502162505 | 54 | 77 | 2.6 | 4.3 | 0.00 | 0.00 | 0.00 | 53 | 1019.4 |
| 20260502162004 | 54 | 133 | 0.9 | 2.6 | 0.00 | 0.00 | 0.00 | 57 | 1019.4 |
| 20260502161504 | 53 | 135 | 0.9 | 2.6 | 0.00 | 0.00 | 0.00 | 55 | 1019.4 |
| 20260502161005 | 52 | 145 | 0.9 | 2.6 | 0.00 | 0.00 | 0.00 | 54 | 1019.4 |
| 20260502160504 | 52 | 154 | 1.7 | 2.6 | 0.00 | 0.00 | 0.00 | 56 | 1019.4 |
| 20260502152005 | 50 | 90 | 0.9 | 2.6 | 0.00 | 0.00 | 0.00 | 58 | 1019.7 |
| 20260502151505 | 50 | 118 | 0.0 | 1.7 | 0.00 | 0.00 | 0.00 | 58 | 1019.7 |
| 20260502151004 | 50 | 76 | 0.9 | 1.7 | 0.00 | 0.00 | 0.00 | 62 | 1019.8 |
| 20260502150505 | 50 | 89 | 0.9 | 1.7 | 0.00 | 0.00 | 0.00 | 61 | 1019.8 |
| 20260502130505 | 44 | 9 | 0.0 | 0.0 | 0.00 | 0.00 | 0.00 | 74 | 1019.2 |
| 20260502123505 | 43 | 9 | 0.0 | 0.9 | 0.00 | 0.00 | 0.00 | 72 | 1019.2 |
| 20260502123004 | 43 | 9 | 0.0 | 0.9 | 0.00 | 0.00 | 0.00 | 72 | 1019.2 |
| 20260502122504 | 43 | 9 | 0.0 | 0.9 | 0.00 | 0.00 | 0.00 | 72 | 1019.2 |
| 20260502122005 | 43 | 346 | 0.0 | 0.0 | 0.00 | 0.00 | 0.00 | 72 | 1019.2 |
| 20260502121505 | 43 | 346 | 0.0 | 0.0 | 0.00 | 0.00 | 0.00 | 71 | 1019.2 |
| 20260502121005 | 43 | 346 | 0.0 | 0.0 | 0.00 | 0.00 | 0.00 | 71 | 1019.2 |
| 20260502120505 | 43 | 346 | 0.0 | 0.0 | 0.00 | 0.00 | 0.00 | 71 | 1019.2 |
| 20260502115504 | 43 | 346 | 0.0 | 0.0 | 0.00 | 0.00 | 0.00 | 71 | 1019.3 |
| 20260502115005 | 43 | 346 | 0.0 | 0.0 | 0.00 | 0.00 | 0.00 | 71 | 1019.3 |
| 20260502114005 | 43 | 347 | 0.9 | 0.9 | 0.00 | 0.00 | 0.00 | 70 | 1019.3 |
| 20260502113005 | 44 | 352 | 0.9 | 1.7 | 0.00 | 0.00 | 0.00 | 69 | 1019.3 |
| 20260502112504 | 44 | 341 | 1.7 | 1.7 | 0.00 | 0.00 | 0.00 | 69 | 1019.4 |
| 20260502111504 | 45 | 335 | 0.9 | 0.9 | 0.00 | 0.00 | 0.00 | 68 | 1019.4 |
| 20260502110505 | 45 | 346 | 1.7 | 2.6 | 0.00 | 0.00 | 0.00 | 68 | 1019.4 |
| 20260502110005 | 45 | 347 | 1.7 | 2.6 | 0.00 | 0.00 | 0.00 | 68 | 1019.3 |
| 20260502105005 | 45 | 335 | 1.7 | 1.7 | 0.00 | 0.00 | 0.00 | 68 | 1019.4 |
| 20260502104505 | 45 | 331 | 1.7 | 1.7 | 0.00 | 0.00 | 0.00 | 68 | 1019.4 |
| 20260502104005 | 46 | 343 | 1.7 | 1.7 | 0.00 | 0.00 | 0.00 | 67 | 1019.4 |
| 20260502103004 | 46 | 311 | 0.9 | 1.7 | 0.00 | 0.00 | 0.00 | 67 | 1019.4 |
| 20260502102505 | 46 | 309 | 0.9 | 0.9 | 0.00 | 0.00 | 0.00 | 67 | 1019.4 |
| 20260502102005 | 46 | 321 | 0.9 | 1.7 | 0.00 | 0.00 | 0.00 | 68 | 1019.4 |
| 20260502101504 | 46 | 321 | 1.7 | 2.6 | 0.00 | 0.00 | 0.00 | 68 | 1019.4 |
| 20260502101004 | 46 | 321 | 1.7 | 2.6 | 0.00 | 0.00 | 0.00 | 68 | 1019.4 |
| 20260502100505 | 46 | 315 | 0.9 | 1.7 | 0.00 | 0.00 | 0.00 | 69 | 1019.4 |
| 20260502091505 | 48 | 341 | 2.6 | 5.2 | 0.00 | 0.00 | 0.00 | 65 | 1019.4 |
| 20260502091005 | 48 | 335 | 3.5 | 5.2 | 0.00 | 0.00 | 0.00 | 65 | 1019.3 |
| 20260502071004 | 49 | 282 | 4.3 | 6.1 | 0.00 | 0.00 | 0.00 | 63 | 1018.9 |
| 20260502070504 | 48 | 274 | 2.6 | 5.2 | 0.00 | 0.00 | 0.00 | 63 | 1018.9 |
| 20260502065504 | 48 | 287 | 0.9 | 2.6 | 0.00 | 0.00 | 0.00 | 64 | 1018.9 |
| 20260502065004 | 48 | 289 | 2.6 | 4.3 | 0.00 | 0.00 | 0.00 | 64 | 1018.9 |
| 20260502064505 | 48 | 306 | 2.6 | 4.3 | 0.00 | 0.00 | 0.00 | 64 | 1018.9 |
| 20260502064005 | 48 | 278 | 4.3 | 6.1 | 0.00 | 0.00 | 0.00 | 64 | 1018.9 |
| 20260502063504 | 48 | 230 | 2.6 | 6.1 | 0.00 | 0.00 | 0.00 | 64 | 1018.9 |
| 20260502063005 | 48 | 232 | 3.5 | 6.1 | 0.00 | 0.00 | 0.00 | 63 | 1018.8 |
| 20260502062505 | 48 | 244 | 1.7 | 4.3 | 0.00 | 0.00 | 0.00 | 63 | 1018.8 |
| 20260502062004 | 49 | 266 | 1.7 | 4.3 | 0.00 | 0.00 | 0.00 | 62 | 1018.8 |
| 20260502061504 | 49 | 290 | 0.9 | 1.7 | 0.00 | 0.00 | 0.00 | 62 | 1018.7 |
| 20260502060504 | 49 | 293 | 1.7 | 2.6 | 0.00 | 0.00 | 0.00 | 61 | 1018.6 |
| 20260502060004 | 49 | 293 | 2.6 | 5.2 | 0.00 | 0.00 | 0.00 | 61 | 1018.7 |
| 20260502055004 | 49 | 279 | 2.6 | 5.2 | 0.00 | 0.00 | 0.00 | 61 | 1018.6 |
| 20260502054504 | 49 | 292 | 1.7 | 2.6 | 0.00 | 0.00 | 0.00 | 62 | 1018.6 |
| 20260502054005 | 48 | 304 | 1.7 | 2.6 | 0.00 | 0.00 | 0.00 | 64 | 1018.5 |
| 20260502053504 | 47 | 278 | 0.9 | 1.7 | 0.00 | 0.00 | 0.00 | 65 | 1018.5 |
| 20260502053004 | 48 | 248 | 0.9 | 1.7 | 0.00 | 0.00 | 0.00 | 65 | 1018.4 |
| 20260502052504 | 48 | 318 | 0.0 | 0.0 | 0.00 | 0.00 | 0.00 | 64 | 1018.3 |